User: anonymous   Login
Location: Unspecified
(0.0000°N, 0.0000°E)
Time: 13:35:18
(UTC+00:00)
Language:

DOVE 4 - Orbit

View from above orbital plane
View from above orbital plane
View from above satellite
View from above satellite

Ground track
Ground track

The orbit data is extracted from the following two-line orbital elements,

1 39430U 13066Q   18116.18471896  .00000207  00000-0  46053-4 0  9997
2 39430  97.6939  96.8184 0152610 134.2901 227.0937 14.59058035235577
Epoch (UTC): 26 April 2018 04:25:59
Eccentricity: 0.0152610
inclination: 97.6939°
perigee height: 588 km
apogee height: 804 km
right ascension of ascending node: 96.8184°
argument of perigee: 134.2901°
revolutions per day: 14.59058035
mean anomaly at epoch: 227.0937°
orbit number at epoch: 23557

The dashed part of the orbit path shows where the satellite is in the earth's shadow,  

DLR